Погода в Аргаси

Греция     37°45′49″N   20°55′21″E
темп.,
°C
ветер,
м/с
пор.,
м/с
влажн.,
%
обл.,
%
осадки,
мм/ч
давл.,
гПа
погр.,
м
13 апреля, вт
вт1300:00+15зюз1158100 0.0 1022222
03:00+15зюз1158100 0.0 1021212
06:00+15всв226098 0.0 1020321
09:00+15з226282 0.0 1020266
12:00+16в115920 0.0 1020206
15:00+17ююз345486 0.0 1019335
18:00+17зюз455976 0.0 1018259
21:00+16зюз226956 0.0 1018136
14 апреля, ср
ср1400:00+16юз11671 0.0 1018186
03:00+15зюз22685 0.0 1017278
06:00+15юз1270100 0.0 1016254
09:00+15юз017274 0.0 1017292
12:00+16з1261100 0.0 1017350
15:00+16с65683 0.0 1017618
18:00+16ссз77645 0.0 1016600
21:00+15ссз77610 0.0 1017589
15 апреля, чт
чт1500:00+14ссз56620 0.0 1018572
03:00+13сз55620 0.0 1017590
06:00+13ссз55611 0.0 1017721
09:00+13ссз55610 0.0 1017738
12:00+14с55585 0.0 1018812
15:00+15сз44525 0.0 1017846
18:00+15ссз545394 0.0 1016916
21:00+15ссз2254100 0.0 1016440
16 апреля, пт
пт1600:00+14сз3357100 0.0 1017557
03:00+14с6661100 0.0 1016749
06:00+14с6761100 0.0 1015783
09:00+14с5561100 0.0 1016682
12:00+14ссв4461100 0.0 1015373
15:00+15ссв4354100 0.0 1014218
18:00+16всв2253100 0.0 1012277
21:00+16сз0057100 0.0 1012140
17 апреля, сб
сб1700:00+16всв2260100 0.0 1010146
03:00+15св4563100 0.0 1008195
06:00+16ссв6674100 0.1 1005212
09:00+16ссв22775 0.2 1006102
12:00+16ссв55740 0.0 1006183
15:00+17ссв68731 0.0 1005139
18:00+18ссз66701 0.0 1005126
21:00+18с10127299 0.0 1006360